Location: Unspecified
(0.0000°N, 0.0000°E)
Time: 03:22:16
(UTC+00:00)

Envisat - Pass Details

Date: 10 November 2019
Orbit: 764 x 766 km, 98.1° (Epoch: 11 November)

Event Time Altitude Azimuth Distance (km) Brightness Sun altitude
Rises 19:16:49 0° 193° (SSW) 3,230 6.7 -22.1°
Reaches altitude 10° 19:19:35 10° 208° (SSW) 2,302 6.1 -22.8°
Maximum altitude 19:23:27 22° 258° (WSW) 1,614 5.5 -23.7°
Drops below altitude 10° 19:27:19 10° 308° (NW) 2,293 5.9 -24.6°
Sets 19:30:05 0° 323° (NW) 3,216 6.5 -25.3°
